Location: Unspecified
(0.0000°N, 0.0000°E)
Time: 20:40:36
(UTC+00:00)

Tiros 1 - Pass Details

Date: 28 October 2021
Orbit: 630 x 664 km, 48.4° (Epoch: 04 December)

Event Time Altitude Azimuth Distance (km) Brightness Sun altitude
Rises 15:58:18 0° 353° (N) 2,914 10.4 25.6°
Reaches altitude 10° 16:01:42 10° 19° (NNE) 2,003 9.4 24.8°
Maximum altitude 16:04:03 14° 50° (NE) 1,762 9.0 24.2°
Drops below altitude 10° 16:06:24 10° 81° (E) 2,001 9.2 23.6°
Sets 16:09:47 0° 106° (ESE) 2,908 10.0 22.8°
